STARLINK-32362, 61845

Orbit data source: Space-Track

STARLINK-32362, 61845 is a payload satellite owned by SpaceX/Seattle (US) in LEO that was launched on Thu, 07 Nov 2024 UTC via an FALCON 9 launch vehicle from the Air Force Eastern Test Range (AFETR). Payload-class satellites include a variety of spacecraft equipped with specific instruments for various scientific and technological missions. These include communications satellites like Starlink; space stations such as the ISS; scientific satellites like the Hubble; Earth observation satellites from companies like Planet Labs, Umbra, and HawkEye 360; GPS; miniature CubeSats for education and research; and military/defense satellites.

Loading next visibility...
Identifier
61845, 2024-202A
Orbit
LEO
Country
Flag of USUS
Related business
Manufacturer
SpaceX/Seattle
Mission
Operational Commercial Communications
Bus & Motor
STARLINK V2M, Unknown motor
Mass
730 kg wet, ~700 kg dry
Launch date (UTC)
2024-11-07 (1 year ago)
Launch vehicle
FALCON 9
Launch site
Air Force Eastern Test Range (AFETR)
Object type
Payload
Rocket body
Debris
Shape & HBR
Box + 2 Pan, 17.7 m
Radar Cross Section
33.884 m², Large (>1 m²)

Expand to show TLE details & history
Last TLE update: 14 hours ago

TLE from 14 hours ago
0 STARLINK-32362
1 61845U 24202A   25306.48794257  .00001654  00000-0  69653-4 0  9995
2 61845  42.9996 225.1246 0001077 278.4169  81.6561 15.27566746 56590
Epoch: 2025-11-02T11:42Z
TLE epoch observation values (Epoch: 2025-11-02T11:42:38.238Z)
Latitude
0.00003°
Longitude
7.46236°
Altitude
482.757 km
Speed
7.626 km/s
True Right ascension
15h 00m 29s
True Declination
0° 00' 00"
Sunlit
Object was in daylight at epoch
Visualization orbit readout
Latitude
Unknown
Longitude
Unknown
Altitude
Unknown
Speed
Unknown
Apparent Right ascension
Unknown
Apparent Declination
Unknown
Sunlit
N/A
Visualization observer readout
Local Sidereal Time
21:21:10
Azimuth
Unknown
Elevation
Unknown
Doppler factor
Unknown
Orbital elements
Apogee altitude
485.773 km
Perigee altitude
484.295 km
Semi-major axis
6,863.171 km
Eccentricity
0.00011
Inclination
42.9996°
RAAN
225.1246°
Arg. of periapsis
278.4169°
True anomaly
81.66831°
Mean anomaly
81.6561°
Eccentric anomaly
81.66221°
Mean motion
3.8173 °/min
Orbital period
94.31 mins
BSTAR
0.000069653
Loading maneuver chart data...
Computing Atmospheric mass density...
Loading historical data...
Loading historical data...
Loading historical data...
Loading historical data...
Loading historical data...
Loading historical data...
Loading historical data...

Documentation

Showing up to 5 results
|